CW9773 Weather Reports


Display with metric or nautical units.
time (UTC)temp
F
wind
direction
speed
MPH
gust
MPH
rain 1hr
in
rain 24hr
in
rain mn
in
humidity
%
barometer
mb
20260508200039 66 167 0.0 0.0 0.00 0.00 0.00 55 1012.6
20260508194555 67 168 0.0 0.0 0.00 0.00 0.00 55 1013.0
20260508193017 68 168 0.0 0.0 0.00 0.00 0.00 52 1012.9
20260508191550 66 166 0.0 0.0 0.00 0.00 0.00 58 1013.4
20260508190037 67 203 0.0 0.0 0.00 0.00 0.00 52 1013.4
20260508184543 69 203 0.0 0.0 0.00 0.00 0.00 51 1013.5
20260508183028 69 180 0.0 0.0 0.00 0.00 0.00 54 1013.8
20260508181550 70 155 0.0 0.0 0.00 0.00 0.00 51 1013.7
20260508180022 70 207 0.0 0.0 0.00 0.00 0.00 50 1014.2
20260508174549 69 195 0.0 0.0 0.00 0.00 0.00 52 1014.2
20260508173000 68 196 0.0 0.0 0.00 0.00 0.00 49 1014.5
20260508171529 69 154 0.0 0.0 0.00 0.00 0.00 45 1014.7
20260508170048 68 179 0.0 0.0 0.00 0.00 0.00 50 1015.0
20260508164523 68 144 0.0 0.0 0.00 0.00 0.00 50 1015.1
20260508163041 68 135 0.0 0.0 0.00 0.00 0.00 49 1015.3
20260508161606 66 241 0.0 0.0 0.00 0.00 0.00 49 1015.5
20260508160025 64 233 0.0 0.0 0.00 0.00 0.00 51 1015.7
20260508154542 63 340 0.0 0.0 0.00 0.00 0.00 49 1016.0
20260508153100 61 257 0.0 0.0 0.00 0.00 0.00 54 1016.1
20260508151528 59 257 0.0 0.0 0.00 0.00 0.00 54 1016.2
20260508150046 57 195 0.0 0.0 0.00 0.00 0.00 55 1016.2
20260508144509 53 281 0.0 0.0 0.00 0.00 0.00 59 1016.4
20260508143032 50 281 0.0 0.0 0.00 0.00 0.00 61 1016.5
20260508141604 48 211 0.0 0.0 0.00 0.00 0.00 71 1016.5
20260508140021 46 190 0.0 0.0 0.00 0.00 0.00 79 1016.5
20260508134543 45 190 0.0 0.0 0.00 0.00 0.00 81 1016.4
20260508133100 43 190 0.0 0.0 0.00 0.00 0.00 83 1016.5
20260508131532 42 190 0.0 0.0 0.00 0.00 0.00 87 1016.4
20260508124518 41 190 0.0 0.0 0.00 0.00 0.00 88 1016.2
20260508123100 40 190 0.0 0.0 0.00 0.00 0.00 87 1016.1
20260508121512 40 190 0.0 0.0 0.00 0.00 0.00 87 1016.0
20260508120055 40 190 0.0 0.0 0.00 0.00 0.00 87 1015.8
20260508114603 39 190 0.0 0.0 0.00 0.05 0.00 87 1015.5
20260508113037 39 190 0.0 0.0 0.00 0.05 0.00 87 1015.2
20260508111558 40 190 0.0 0.0 0.00 0.05 0.00 86 1014.8
20260508110031 40 190 0.0 0.0 0.00 0.05 0.00 86 1014.6
20260508104547 40 190 0.0 0.0 0.00 0.09 0.00 86 1014.4
20260508103011 41 190 0.0 0.0 0.00 0.09 0.00 86 1014.1
20260508101544 41 190 0.0 0.0 0.00 0.09 0.00 86 1013.7
20260508100056 41 190 0.0 0.0 0.00 0.09 0.00 86 1013.5
20260508094515 41 190 0.0 0.0 0.00 0.09 0.00 87 1013.5
20260508093042 42 190 0.0 0.0 0.00 0.09 0.00 87 1013.3
20260508091510 42 190 0.0 0.0 0.00 0.09 0.00 87 1013.2
20260508090038 42 190 0.0 0.0 0.00 0.09 0.00 88 1013.2
20260508084501 42 190 0.0 0.0 0.00 0.09 0.00 88 1013.1
20260508083034 43 190 0.0 0.0 0.00 0.09 0.00 88 1012.9
20260508081550 43 190 0.0 0.0 0.00 0.09 0.00 88 1012.8
20260508080009 43 190 0.0 0.0 0.00 0.09 0.00 88 1012.8
20260508074547 43 190 0.0 0.0 0.00 0.09 0.00 88 1012.6
20260508073001 44 190 0.0 0.0 0.00 0.09 0.00 88 1012.6
20260508071535 44 190 0.0 0.0 0.00 0.09 0.00 88 1012.5
20260508070059 44 190 0.0 0.0 0.00 0.09 0.00 88 1012.5
20260508064539 44 190 0.0 0.0 0.00 0.09 0.00 88 1012.4
20260508063011 44 183 0.0 0.0 0.00 0.09 0.00 88 1012.2
20260508061532 44 240 0.0 0.0 0.00 0.09 0.00 88 1012.3
20260508060059 44 240 0.0 0.0 0.00 0.09 0.00 88 1012.2
20260508054533 44 240 0.0 0.0 0.00 0.09 0.00 88 1012.3
20260508053108 44 240 0.0 0.0 0.00 0.09 0.00 87 1012.3
20260508051540 44 240 0.0 0.0 0.00 0.09 0.00 87 1012.4
20260508050002 44 240 0.0 0.0 0.00 0.09 0.00 87 1012.4
20260508044537 44 240 0.0 0.0 0.00 0.10 0.00 87 1012.4
20260508043002 44 240 0.0 0.0 0.00 0.10 0.00 87 1012.2
20260508041530 45 240 0.0 0.0 0.00 0.10 0.00 87 1012.0
20260508040053 45 240 0.0 0.0 0.00 0.10 0.00 87 1012.2
20260508034523 45 240 0.0 0.0 0.00 0.11 0.10 87 1012.2
20260508033048 45 241 0.0 0.0 0.00 0.11 0.10 87 1012.2
20260508031517 45 241 0.0 0.0 0.00 0.11 0.10 87 1012.2
20260508030047 45 241 0.0 0.0 0.00 0.11 0.10 86 1012.2
20260508024504 45 241 0.0 0.0 0.00 0.14 0.10 86 1011.8
20260508023033 46 241 0.0 0.0 0.00 0.14 0.10 86 1011.5
20260508021518 46 241 0.0 0.0 0.00 0.14 0.10 86 1011.3
20260508020045 46 241 0.0 0.0 0.00 0.14 0.10 85 1011.1
20260508014503 46 241 0.0 0.0 0.00 0.17 0.10 85 1010.9
20260508013037 46 241 0.0 0.0 0.00 0.17 0.10 85 1010.6
20260508011600 47 241 0.0 0.0 0.00 0.17 0.10 84 1010.4
20260508010033 47 241 0.0 0.0 0.00 0.17 0.10 84 1010.1
20260508004556 48 241 0.0 0.0 0.00 0.18 0.10 83 1010.0
20260508003023 48 241 0.0 0.0 0.00 0.18 0.10 83 1009.8
20260508001608 49 241 0.0 0.0 0.00 0.18 0.10 83 1009.6
20260508000012 49 241 0.0 0.0 0.00 0.18 0.10 83 1009.6
20260507234536 50 241 0.0 0.0 0.00 0.22 0.10 83 1009.7
20260507233006 50 241 0.0 0.0 0.00 0.22 0.10 82 1009.5
20260507231538 50 241 0.0 0.0 0.00 0.22 0.10 83 1009.6
20260507230101 50 241 0.0 0.0 0.00 0.22 0.10 82 1009.4
20260507224541 51 261 0.0 0.0 0.00 0.23 0.10 82 1009.2
20260507223056 51 261 0.0 0.0 0.00 0.23 0.10 82 1009.1
20260507221522 51 327 0.0 0.0 0.00 0.23 0.10 82 1008.7
20260507220047 51 327 0.0 0.0 0.00 0.23 0.10 82 1008.6
20260507214515 51 327 0.0 0.0 0.00 0.24 0.10 81 1008.3
20260507213036 52 335 0.0 0.0 0.00 0.24 0.10 80 1008.0
20260507211554 54 327 0.0 0.0 0.00 0.24 0.10 79 1007.7
20260507210021 56 320 0.0 0.0 0.00 0.24 0.10 80 1007.3
20260507204556 57 340 0.0 0.0 0.00 0.24 0.10 79 1007.2
20260507203017 57 340 0.0 1.0 0.00 0.24 0.10 79 1006.9
20260507201552 59 335 0.0 0.0 0.00 0.24 0.10 77 1006.9